Location: Unspecified
(47.9110°N, 14.3980°E)
Time: 08:47:47
(UTC+00:00)

Cosmos 2242 Rocket - Pass Details

Date: 06 August 2020
Orbit: 618 x 652 km, 82.5° (Epoch: 20 September)

Event Time Altitude Azimuth Distance (km) Brightness Sun altitude
Rises 21:32:54 0° 344° (NNW) 2,936 8.5 -22.3°
Reaches altitude 10° 21:35:15 10° 338° (NNW) 2,018 7.3 -22.4°
Maximum altitude 21:39:26 42° 268° (W) 900 4.5 -22.7°
Enters shadow 21:40:27 36° 234° (SW) 995 4.4 -22.8°
